Météo par heure à Alliste

Ce jour, 15 Mai, Samedi

Heure Température Précipitation Vent Pression Humidité
00:00 +17°C° 0.1 mm 6 m/s 756 mmHg 79%
01:00 +17°C° 0 mm 6 m/s 756 mmHg 81%
02:00 +17°C° 0.6 mm 7 m/s 755 mmHg 79%
03:00 +17°C° 0.6 mm 8 m/s 754 mmHg 78%
04:00 +17°C° 0.6 mm 10 m/s 753 mmHg 76%
05:00 +17°C° 1 mm 9 m/s 754 mmHg 73%
06:00 +17°C° 1 mm 9 m/s 754 mmHg 71%
07:00 +18°C° 1 mm 9 m/s 754 mmHg 68%
08:00 +18°C° 0.8 mm 8 m/s 755 mmHg 66%
09:00 +18°C° 0.8 mm 7 m/s 755 mmHg 64%
10:00 +19°C° 0.8 mm 6 m/s 756 mmHg 62%
11:00 +19°C° 0.1 mm 6 m/s 756 mmHg 61%
12:00 +20°C° 0.1 mm 5 m/s 756 mmHg 60%
13:00 +20°C° 0.1 mm 5 m/s 756 mmHg 59%
14:00 +20°C° 0.1 mm 4 m/s 756 mmHg 59%
15:00 +20°C° 0.1 mm 3 m/s 756 mmHg 60%
16:00 +20°C° 0.1 mm 2 m/s 757 mmHg 61%
17:00 +19°C° 0 mm 2 m/s 757 mmHg 64%
18:00 +19°C° 0 mm 2 m/s 757 mmHg 67%
19:00 +18°C° 0 mm 2 m/s 757 mmHg 70%
20:00 +17°C° 0 mm 2 m/s 757 mmHg 74%
21:00 +17°C° 0 mm 2 m/s 757 mmHg 77%
22:00 +16°C° 0 mm 3 m/s 757 mmHg 81%
23:00 +16°C° 0 mm 3 m/s 757 mmHg 82%

Demain, 16 Mai, Dimanche

Heure Température Précipitation Vent Pression Humidité
00:00 +16°C° 0 mm 3 m/s 757 mmHg 83%
01:00 +14°C° 0 mm 4 m/s 758 mmHg 85%
02:00 +14°C° 0 mm 4 m/s 757 mmHg 85%
03:00 +14°C° 0 mm 3 m/s 757 mmHg 85%
04:00 +14°C° 0 mm 3 m/s 757 mmHg 85%
05:00 +16°C° 0 mm 3 m/s 757 mmHg 80%
06:00 +17°C° 0 mm 3 m/s 758 mmHg 74%
07:00 +18°C° 0 mm 3 m/s 758 mmHg 69%
08:00 +19°C° 0 mm 3 m/s 758 mmHg 62%
09:00 +20°C° 0 mm 3 m/s 758 mmHg 55%
10:00 +22°C° 0 mm 3 m/s 758 mmHg 48%
11:00 +22°C° 0 mm 4 m/s 758 mmHg 47%
12:00 +23°C° 0 mm 4 m/s 758 mmHg 46%
13:00 +23°C° 0 mm 4 m/s 758 mmHg 44%
14:00 +23°C° 0 mm 4 m/s 758 mmHg 46%
15:00 +23°C° 0 mm 4 m/s 758 mmHg 48%
16:00 +22°C° 0 mm 4 m/s 757 mmHg 50%
17:00 +21°C° 0 mm 4 m/s 757 mmHg 55%
18:00 +20°C° 0 mm 4 m/s 757 mmHg 61%
19:00 +19°C° 0 mm 4 m/s 757 mmHg 66%
20:00 +19°C° 0 mm 4 m/s 757 mmHg 70%
21:00 +18°C° 0 mm 4 m/s 757 mmHg 74%
22:00 +18°C° 0 mm 4 m/s 757 mmHg 77%
23:00 +18°C° 0 mm 4 m/s 757 mmHg 77%

Après-demain, 17 Mai, Lundi

Heure Température Précipitation Vent Pression Humidité
00:00 +18°C° 0 mm 3 m/s 757 mmHg 77%
01:00 +18°C° 0 mm 3 m/s 756 mmHg 77%
02:00 +18°C° 0 mm 3 m/s 756 mmHg 77%
03:00 +18°C° 0 mm 3 m/s 756 mmHg 77%
04:00 +18°C° 0 mm 3 m/s 756 mmHg 76%
05:00 +19°C° 0 mm 4 m/s 756 mmHg 71%
06:00 +20°C° 0 mm 5 m/s 756 mmHg 65%
07:00 +22°C° 0 mm 5 m/s 756 mmHg 59%
08:00 +23°C° 0 mm 5 m/s 756 mmHg 53%
09:00 +26°C° 0 mm 4 m/s 757 mmHg 48%
10:00 +27°C° 0 mm 4 m/s 757 mmHg 42%
11:00 +28°C° 0 mm 4 m/s 757 mmHg 39%
12:00 +28°C° 0 mm 4 m/s 756 mmHg 37%
13:00 +29°C° 0 mm 4 m/s 756 mmHg 34%
14:00 +29°C° 0 mm 4 m/s 756 mmHg 34%
15:00 +29°C° 0 mm 5 m/s 756 mmHg 34%
16:00 +29°C° 0 mm 5 m/s 756 mmHg 35%
17:00 +27°C° 0 mm 4 m/s 756 mmHg 44%
18:00 +25°C° 0 mm 4 m/s 756 mmHg 53%
19:00 +22°C° 0 mm 4 m/s 756 mmHg 62%
20:00 +22°C° 0 mm 4 m/s 756 mmHg 65%
21:00 +21°C° 0 mm 4 m/s 757 mmHg 67%
22:00 +21°C° 0 mm 4 m/s 757 mmHg 70%
23:00 +20°C° 0 mm 3 m/s 757 mmHg 70%

18 Mai, Mardi

Heure Température Précipitation Vent Pression Humidité
00:00 +20°C° 0 mm 3 m/s 757 mmHg 71%
01:00 +20°C° 0 mm 3 m/s 757 mmHg 71%
02:00 +20°C° 0 mm 2 m/s 757 mmHg 72%
03:00 +20°C° 0 mm 2 m/s 757 mmHg 73%
04:00 +19°C° 0 mm 2 m/s 757 mmHg 74%
05:00 +21°C° 0 mm 2 m/s 757 mmHg 68%
06:00 +23°C° 0 mm 2 m/s 757 mmHg 63%
07:00 +24°C° 0 mm 2 m/s 758 mmHg 57%
08:00 +26°C° 0 mm 3 m/s 758 mmHg 54%
09:00 +27°C° 0 mm 3 m/s 758 mmHg 50%
10:00 +28°C° 0 mm 3 m/s 758 mmHg 47%
11:00 +28°C° 0 mm 4 m/s 758 mmHg 45%
12:00 +29°C° 0 mm 4 m/s 758 mmHg 44%
13:00 +29°C° 0 mm 4 m/s 758 mmHg 42%
14:00 +29°C° 0 mm 4 m/s 757 mmHg 44%
15:00 +28°C° 0 mm 4 m/s 757 mmHg 45%
16:00 +27°C° 0 mm 5 m/s 757 mmHg 46%
17:00 +26°C° 0 mm 4 m/s 757 mmHg 50%
18:00 +25°C° 0 mm 4 m/s 757 mmHg 54%
19:00 +22°C° 0 mm 4 m/s 757 mmHg 59%
20:00 +21°C° 0 mm 5 m/s 757 mmHg 57%
21:00 +21°C° 0 mm 6 m/s 757 mmHg 55%
22:00 +20°C° 0 mm 7 m/s 758 mmHg 53%
23:00 +18°C° 0 mm 7 m/s 758 mmHg 55%

19 Mai, Mercredi

Heure Température Précipitation Vent Pression Humidité
00:00 +18°C° 0 mm 8 m/s 758 mmHg 56%
01:00 +17°C° 0 mm 8 m/s 758 mmHg 58%
02:00 +17°C° 0 mm 8 m/s 758 mmHg 62%
03:00 +16°C° 0 mm 7 m/s 759 mmHg 66%
04:00 +15°C° 0 mm 7 m/s 759 mmHg 70%
05:00 +16°C° 0 mm 7 m/s 759 mmHg 68%
06:00 +17°C° 0 mm 6 m/s 760 mmHg 66%
07:00 +19°C° 0 mm 6 m/s 760 mmHg 64%
08:00 +21°C° 0 mm 6 m/s 760 mmHg 58%
09:00 +22°C° 0 mm 7 m/s 761 mmHg 51%
10:00 +23°C° 0 mm 7 m/s 761 mmHg 45%
11:00 +23°C° 0 mm 6 m/s 761 mmHg 45%
12:00 +23°C° 0 mm 6 m/s 761 mmHg 45%
13:00 +23°C° 0 mm 6 m/s 761 mmHg 44%
14:00 +23°C° 0 mm 6 m/s 761 mmHg 46%
15:00 +22°C° 0 mm 5 m/s 761 mmHg 47%
16:00 +21°C° 0 mm 5 m/s 760 mmHg 49%
17:00 +20°C° 0 mm 5 m/s 761 mmHg 52%
18:00 +19°C° 0 mm 5 m/s 761 mmHg 56%
19:00 +17°C° 0 mm 5 m/s 761 mmHg 59%
20:00 +17°C° 0 mm 4 m/s 761 mmHg 61%
21:00 +17°C° 0 mm 4 m/s 762 mmHg 62%
22:00 +17°C° 0 mm 3 m/s 762 mmHg 63%
23:00 +17°C° 0 mm 3 m/s 762 mmHg 63%

20 Mai, Jeudi

Heure Température Précipitation Vent Pression Humidité
00:00 +17°C° 0 mm 3 m/s 762 mmHg 64%
01:00 +17°C° 0 mm 3 m/s 762 mmHg 64%
02:00 +15°C° 0 mm 4 m/s 762 mmHg 67%
03:00 +15°C° 0 mm 4 m/s 762 mmHg 69%
04:00 +14°C° 0 mm 5 m/s 762 mmHg 72%
05:00 +15°C° 0 mm 6 m/s 762 mmHg 69%
06:00 +16°C° 0 mm 6 m/s 762 mmHg 65%
07:00 +18°C° 0 mm 7 m/s 763 mmHg 62%
08:00 +20°C° 0 mm 7 m/s 763 mmHg 55%
09:00 +21°C° 0 mm 7 m/s 763 mmHg 48%
10:00 +22°C° 0 mm 7 m/s 763 mmHg 41%
11:00 +23°C° 0 mm 7 m/s 763 mmHg 39%
12:00 +23°C° 0 mm 7 m/s 763 mmHg 37%
13:00 +23°C° 0 mm 7 m/s 763 mmHg 36%
14:00 +23°C° 0 mm 7 m/s 763 mmHg 35%
15:00 +23°C° 0 mm 6 m/s 763 mmHg 34%
16:00 +22°C° 0 mm 6 m/s 763 mmHg 33%
17:00 +21°C° 0 mm 6 m/s 763 mmHg 39%
18:00 +19°C° 0 mm 5 m/s 763 mmHg 45%
19:00 +17°C° 0 mm 5 m/s 763 mmHg 51%
20:00 +17°C° 0 mm 4 m/s 763 mmHg 57%
21:00 +15°C° 0 mm 4 m/s 764 mmHg 63%
22:00 +16°C° 0 mm 3 m/s 764 mmHg 69%
23:00 +16°C° 0 mm 3 m/s 764 mmHg 70%
Voir plus

Nous avons besoin de votre consentement

Meteoprog et ses fournisseurs de services peuvent stocker et accéder à des données personnelles telles que des cookies, des identifiants d'appareils ou d'autres technologies similaires sur votre appareil et traiter ces données pour personnaliser le contenu et les publicités, ainsi que pour fournir des fonctionnalités de médias sociaux et analyser le trafic.

  • Stocker et/ou accéder à des informations sur votre appareil

    Des cookies, des identifiants d'appareils ou d'autres informations peuvent être stockés ou accessibles sur votre appareil aux fins indiquées ci-dessus.

  • Annonces et contenus personnalisés, mesure des annonces et des contenus, connaissance de l'audience et développement de produits

    Les annonces et le contenu peuvent être personnalisés en fonction d'un profil. D'autres données peuvent être ajoutées pour mieux personnaliser les annonces et le contenu. Les performances des publicités et du contenu peuvent être mesurées. Il est possible d'obtenir des informations sur le public qui a vu les publicités et le contenu. Ces données peuvent être utilisées pour développer ou améliorer l'expérience de l'utilisateur, les systèmes et les logiciels.

En cliquant sur "J'accepte", vous autorisez l'utilisation de cookies, des identifiants d'appareils, des balises web ou d'autres technologies similaires. Vos paramètres peuvent être modifiés dans le navigateur de votre appareil.

Dans certains cas, des intérêts légitimes peuvent être invoqués plutôt qu'un consentement. Vous pouvez en savoir plus à ce sujet dans notre Politique de confidentialité et de cookies.